WetterOnline ( https://www.wetteronline.de )

Wetter aktuell Wustrow

Aktuelles Wetter: Barth (7m)

6-stündlich | Neueste Meldungen
Ortszeit Temperatur Wetter
Sa, 18.05. 20:00 17.7° C bewölkt
Sa, 18.05. 14:00 21.5° C wolkenlos
Sa, 18.05. 8:00 14.8° C wolkenlos
Sa, 18.05. 2:00 11.3° C wolkenlos
Fr, 17.05. 20:00 16.7° C wolkenlos
Fr, 17.05. 14:00 20.9° C wolkenlos
Fr, 17.05. 8:00 16.0° C wolkenlos
Fr, 17.05. 2:00 14.5° C fast wolkenlos
Ortszeit Temperatur Wetter
So, 19.05. 1:00 13.6° C bedeckt
So, 19.05. 0:50 13.6° C bedeckt
So, 19.05. 0:40 13.6° C bedeckt
So, 19.05. 0:30 13.3° C bedeckt
So, 19.05. 0:20 13.3° C bedeckt
So, 19.05. 0:10 13.3° C bedeckt
So, 19.05. 0:00 13.6° C bedeckt
Sa, 18.05. 23:30 13.8° C bewölkt
Sa, 18.05. 23:00 14.4° C bedeckt
Sa, 18.05. 22:30 14.7° C wolkig
Sa, 18.05. 22:00 15.2° C bedeckt
Ortszeit Relative Feuchte Sichtweite
Sa, 18.05. 20:00 66% 45 km
Sa, 18.05. 14:00 43% 40 km
Sa, 18.05. 8:00 70% 40 km
Sa, 18.05. 2:00 80% 40 km
Fr, 17.05. 20:00 60% 50 km
Fr, 17.05. 14:00 40% >70 km
Fr, 17.05. 8:00 62% 55 km
Fr, 17.05. 2:00 63% 45 km
Ortszeit Relative Feuchte Sichtweite
So, 19.05. 1:00 88% 30 km
So, 19.05. 0:50 88% -
So, 19.05. 0:40 88% -
So, 19.05. 0:30 89% 30 km
So, 19.05. 0:20 89% -
So, 19.05. 0:10 89% -
So, 19.05. 0:00 87% 35 km
Sa, 18.05. 23:30 87% 40 km
Sa, 18.05. 23:00 83% 40 km
Sa, 18.05. 22:30 82% 40 km
Sa, 18.05. 22:00 81% 45 km
Ortszeit Niederschlagsmenge Niederschlagsart
Sa, 18.05. 20:00 0.0 l/m2 in 12 Std. -
Sa, 18.05. 14:00 0.0 l/m2 in 6 Std. -
Sa, 18.05. 8:00 0.0 l/m2 in 12 Std. -
Sa, 18.05. 2:00 0.0 l/m2 in 6 Std. -
Fr, 17.05. 20:00 0.0 l/m2 in 12 Std. -
Fr, 17.05. 14:00 0.0 l/m2 in 6 Std. -
Fr, 17.05. 8:00 0.0 l/m2 in 12 Std. -
Fr, 17.05. 2:00 0.0 l/m2 in 6 Std. -
Ortszeit Niederschlagsmenge Niederschlagsart
So, 19.05. 1:00 0.0 l/m2 in 1 Std. -
So, 19.05. 0:50 keine Meldung -
So, 19.05. 0:40 keine Meldung -
So, 19.05. 0:30 0.0 l/m2 in 30 Min -
So, 19.05. 0:20 keine Meldung -
So, 19.05. 0:10 keine Meldung -
So, 19.05. 0:00 0.0 l/m2 in 1 Std. -
Sa, 18.05. 23:30 0.0 l/m2 in 30 Min -
Sa, 18.05. 23:00 0.0 l/m2 in 1 Std. -
Sa, 18.05. 22:30 0.0 l/m2 in 30 Min -
Sa, 18.05. 22:00 0.0 l/m2 in 1 Std. -
Ortszeit Stärke Spitze Richtung
km/h Bft. km/h Grad Sektor
Sa, 18.05. 20:00 13 3 43 40° NO
Sa, 18.05. 14:00 28 4 41 80° O
Sa, 18.05. 8:00 13 3 20 70° O
Sa, 18.05. 2:00 13 3 31 70° O
Fr, 17.05. 20:00 22 4 50 70° O
Fr, 17.05. 14:00 35 5 52 90° O
Fr, 17.05. 8:00 22 4 32 100° O
Fr, 17.05. 2:00 20 4 37 100° O
Ortszeit Stärke Spitze Richtung
km/h Bft. km/h Grad Sektor
So, 19.05. 1:00 4 1 14 30° NO
So, 19.05. 0:50 4 1 - 30° NO
So, 19.05. 0:40 6 1 - 40° NO
So, 19.05. 0:30 4 1 14 90° O
So, 19.05. 0:20 4 1 - 90° O
So, 19.05. 0:10 7 2 - 50° NO
So, 19.05. 0:00 7 2 14 60° NO
Sa, 18.05. 23:30 6 1 13 110° O
Sa, 18.05. 23:00 7 2 14 40° NO
Sa, 18.05. 22:30 7 2 14 50° NO
Sa, 18.05. 22:00 9 2 15 50° NO
Ortszeit Untergrenze Bedeckung Gattung
total tief tief mittel hoch
Sa, 18.05. 20:00 3300 m 7/8 7/8 - - -
Sa, 18.05. 14:00 - 0/8 0/8 - - -
Sa, 18.05. 8:00 - 0/8 0/8 - - -
Sa, 18.05. 2:00 - 0/8 0/8 - - -
Fr, 17.05. 20:00 - 0/8 0/8 - - -
Fr, 17.05. 14:00 - 0/8 0/8 - - -
Fr, 17.05. 8:00 - 0/8 0/8 - - -
Fr, 17.05. 2:00 2700 m 1/8 1/8 - - -
Ortszeit Bedeckungsgrad in Achtel und Wolkenuntergrenze
So, 19.05. 1:00 8(3000m)
So, 19.05. 0:50 8(3000m)
So, 19.05. 0:40 8
So, 19.05. 0:30 8(3000m)
So, 19.05. 0:20 8(3000m)
So, 19.05. 0:10 8
So, 19.05. 0:00 8(3300m)
Sa, 18.05. 23:30 4(2700m) 8(3300m)
Sa, 18.05. 23:00 8(3300m)
Sa, 18.05. 22:30 1(2700m) 8(3300m)
Sa, 18.05. 22:00 8(3000m)
Ortszeit Luftdruck NN (hPa) Tendenz (hPa in 3 Std.)
Sa, 18.05. 20:00 1011 - 0,5
Sa, 18.05. 14:00 1012 - 0,6
Sa, 18.05. 8:00 1013 + 0,3
Sa, 18.05. 2:00 1013 - 0,4
Fr, 17.05. 20:00 1013 0,0
Fr, 17.05. 14:00 1014 - 0,2
Fr, 17.05. 8:00 1014 + 0,9
Fr, 17.05. 2:00 1014 + 0,1
Ortszeit Luftdruck NN (hPa) Tendenz (hPa in 3 Std.)
So, 19.05. 1:00 1011 - 0,3
So, 19.05. 0:50 1011 keine Meldung
So, 19.05. 0:40 1011 keine Meldung
So, 19.05. 0:30 1012 0,0
So, 19.05. 0:20 1012 keine Meldung
So, 19.05. 0:10 1012 keine Meldung
So, 19.05. 0:00 1012 + 0,3
Sa, 18.05. 23:30 1012 + 0,5
Sa, 18.05. 23:00 1012 + 0,4
Sa, 18.05. 22:30 1012 + 0,3
Sa, 18.05. 22:00 1012 + 0,2
Ortszeit Schneehöhe (cm)
Sa, 18.05. 20:00 0
Sa, 18.05. 14:00 0
Sa, 18.05. 8:00 0
Sa, 18.05. 2:00 0
Fr, 17.05. 20:00 0
Fr, 17.05. 14:00 0
Fr, 17.05. 8:00 0
Fr, 17.05. 2:00 0
Ortszeit Schneehöhe (cm)
So, 19.05. 1:00 0
So, 19.05. 0:50 0
So, 19.05. 0:40 -
So, 19.05. 0:30 0
So, 19.05. 0:20 0
So, 19.05. 0:10 -
So, 19.05. 0:00 0
Sa, 18.05. 23:30 0
Sa, 18.05. 23:00 0
Sa, 18.05. 22:30 0
Sa, 18.05. 22:00 0
Link zu dieser Seite / Seite empfehlen

Das Wetter in ...